| time (UTC) | temp F | wind direction | speed knots | gust knots | rain 1hr in | rain 24hr in | rain mn in | humidity % | barometer mb |
| 20260506144511 | 61 | 222 | 6.1 | 9.6 | 0.09 | 0.09 | 0.10 | 72 | 1005.9 |
| 20260506143011 | 65 | 95 | 0.0 | 1.7 | 0.00 | 0.00 | 0.01 | 57 | 1005.0 |
| 20260506140011 | 67 | 0 | 0.0 | 0.0 | 0.00 | 0.00 | 0.01 | 50 | 1004.7 |
| 20260506134511 | 68 | 13 | 0.9 | 3.5 | 0.00 | 0.00 | 0.01 | 50 | 1004.7 |
| 20260506133011 | 69 | 8 | 0.0 | 1.7 | 0.00 | 0.00 | 0.01 | 50 | 1004.7 |
| 20260506131511 | 68 | 22 | 0.9 | 2.6 | 0.00 | 0.00 | 0.01 | 51 | 1004.9 |
| 20260506130011 | 67 | 1 | 0.0 | 3.5 | 0.00 | 0.00 | 0.01 | 52 | 1005.2 |
| 20260506123011 | 69 | 6 | 1.7 | 4.3 | 0.00 | 0.00 | 0.01 | 50 | 1005.3 |
| 20260506121511 | 68 | 340 | 0.9 | 2.6 | 0.00 | 0.00 | 0.01 | 51 | 1005.7 |
| 20260506114511 | 66 | 10 | 0.0 | 1.7 | 0.00 | 0.00 | 0.01 | 53 | 1005.8 |
| 20260506113011 | 66 | 337 | 0.0 | 1.7 | 0.00 | 0.00 | 0.01 | 52 | 1006.0 |
| 20260506111511 | 66 | 65 | 0.9 | 2.6 | 0.00 | 0.00 | 0.01 | 53 | 1006.1 |
| 20260506104511 | 65 | 9 | 0.0 | 2.6 | 0.00 | 0.00 | 0.01 | 54 | 1006.9 |
| 20260506103011 | 65 | 100 | 0.0 | 2.6 | 0.00 | 0.00 | 0.01 | 54 | 1006.9 |
| 20260506101511 | 65 | 73 | 0.0 | 1.7 | 0.00 | 0.00 | 0.01 | 55 | 1006.9 |
| 20260506100011 | 65 | 72 | 0.0 | 0.9 | 0.00 | 0.00 | 0.01 | 55 | 1007.0 |
| 20260506094511 | 65 | 35 | 0.0 | 0.0 | 0.00 | 0.00 | 0.01 | 56 | 1007.1 |
| 20260506093011 | 64 | 43 | 0.0 | 0.9 | 0.00 | 0.00 | 0.01 | 58 | 1007.1 |
| 20260506084511 | 63 | 11 | 0.0 | 1.7 | 0.00 | 0.00 | 0.01 | 59 | 1007.0 |
| 20260506083011 | 62 | 0 | 0.0 | 0.0 | 0.00 | 0.00 | 0.01 | 59 | 1007.2 |
| 20260506081511 | 62 | 170 | 0.0 | 2.6 | 0.00 | 0.00 | 0.01 | 59 | 1007.3 |
| 20260506073011 | 58 | 0 | 0.0 | 0.0 | 0.00 | 0.00 | 0.01 | 68 | 1007.5 |
| 20260506071511 | 57 | 245 | 0.0 | 0.9 | 0.00 | 0.00 | 0.01 | 69 | 1007.6 |
| 20260506061513 | 52 | 0 | 0.0 | 0.0 | 0.00 | 0.00 | 0.01 | 85 | 1007.7 |
| 20260506043011 | 48 | 0 | 0.0 | 0.0 | 0.00 | 0.00 | 0.01 | 88 | 1008.0 |
| 20260506041511 | 48 | 0 | 0.0 | 0.0 | 0.00 | 0.00 | 0.01 | 88 | 1008.3 |
| 20260506040011 | 48 | 0 | 0.0 | 0.0 | 0.00 | 0.00 | 0.01 | 87 | 1008.5 |
| 20260506034511 | 48 | 0 | 0.0 | 0.0 | 0.00 | 0.00 | 0.01 | 86 | 1008.3 |
| 20260506031511 | 48 | 0 | 0.0 | 0.0 | 0.00 | 0.00 | 0.01 | 86 | 1008.6 |
| 20260506030011 | 48 | 0 | 0.0 | 0.0 | 0.00 | 0.00 | 0.01 | 86 | 1008.9 |
| 20260506023011 | 49 | 0 | 0.0 | 0.0 | 0.00 | 0.00 | 0.01 | 85 | 1008.7 |
| 20260506021511 | 49 | 0 | 0.0 | 0.0 | 0.00 | 0.00 | 0.01 | 84 | 1008.6 |
| 20260506020011 | 49 | 0 | 0.0 | 0.0 | 0.00 | 0.00 | 0.01 | 84 | 1008.8 |
| 20260506014511 | 50 | 0 | 0.0 | 0.0 | 0.00 | 0.00 | 0.01 | 83 | 1008.8 |
| 20260506011511 | 50 | 202 | 1.7 | 3.5 | 0.00 | 0.00 | 0.01 | 83 | 1009.0 |
| 20260506010011 | 51 | 197 | 0.9 | 1.7 | 0.00 | 0.00 | 0.01 | 82 | 1009.0 |
| 20260506003011 | 52 | 202 | 0.9 | 0.9 | 0.00 | 0.00 | 0.01 | 82 | 1009.1 |
| 20260506001511 | 53 | 0 | 0.0 | 0.0 | 0.00 | 0.00 | 0.01 | 80 | 1009.2 |
| 20260506000011 | 53 | 222 | 0.9 | 2.6 | 0.00 | 0.00 | 0.01 | 80 | 1009.5 |
| 20260505234511 | 54 | 232 | 1.7 | 2.6 | 0.00 | 0.00 | 0.01 | 80 | 1009.5 |
| 20260505233011 | 54 | 229 | 1.7 | 3.5 | 0.00 | 0.00 | 0.01 | 80 | 1009.7 |
| 20260505231511 | 55 | 209 | 1.7 | 2.6 | 0.00 | 0.00 | 0.01 | 78 | 1009.9 |
| 20260505230011 | 56 | 203 | 2.6 | 4.3 | 0.00 | 0.00 | 0.01 | 77 | 1009.8 |
| 20260505224511 | 56 | 206 | 1.7 | 7.0 | 0.00 | 0.00 | 0.01 | 80 | 1009.8 |
| 20260505223011 | 56 | 198 | 3.5 | 6.1 | 0.00 | 0.00 | 0.01 | 80 | 1009.6 |
| 20260505221511 | 56 | 203 | 3.5 | 5.2 | 0.00 | 0.00 | 0.01 | 80 | 1009.5 |
| 20260505220011 | 57 | 220 | 1.7 | 2.6 | 0.00 | 0.01 | 0.01 | 77 | 1009.6 |
| 20260505214511 | 57 | 213 | 2.6 | 6.1 | 0.00 | 0.01 | 0.01 | 75 | 1009.5 |
| 20260505213011 | 58 | 222 | 2.6 | 4.3 | 0.00 | 0.01 | 0.01 | 74 | 1009.7 |
| 20260505210011 | 59 | 227 | 2.6 | 4.3 | 0.00 | 0.01 | 0.01 | 72 | 1009.6 |
| 20260505201511 | 59 | 218 | 1.7 | 2.6 | 0.00 | 0.01 | 0.01 | 71 | 1008.9 |
| 20260505194511 | 58 | 222 | 1.7 | 4.3 | 0.00 | 0.01 | 0.01 | 71 | 1008.2 |
| 20260505193011 | 59 | 348 | 0.0 | 1.7 | 0.00 | 0.01 | 0.01 | 71 | 1007.6 |
| 20260505191511 | 59 | 258 | 0.0 | 1.7 | 0.00 | 0.01 | 0.01 | 70 | 1007.3 |
| 20260505184511 | 60 | 342 | 0.9 | 1.7 | 0.00 | 0.01 | 0.01 | 68 | 1007.3 |
| 20260505181511 | 60 | 226 | 2.6 | 4.3 | 0.00 | 0.01 | 0.01 | 67 | 1007.4 |
| 20260505173011 | 63 | 331 | 0.9 | 1.7 | 0.00 | 0.01 | 0.01 | 62 | 1006.9 |
| 20260505171511 | 63 | 324 | 0.0 | 2.6 | 0.00 | 0.01 | 0.01 | 63 | 1006.9 |
| 20260505170011 | 64 | 350 | 0.0 | 2.6 | 0.01 | 0.01 | 0.01 | 64 | 1006.8 |
| 20260505164511 | 63 | 332 | 0.0 | 0.9 | 0.01 | 0.01 | 0.01 | 67 | 1006.9 |
| 20260505163011 | 62 | 315 | 0.0 | 1.7 | 0.01 | 0.01 | 0.01 | 73 | 1007.0 |
| 20260505161511 | 62 | 202 | 0.0 | 1.7 | 0.01 | 0.01 | 0.01 | 69 | 1007.1 |
| 20260505153011 | 64 | 220 | 1.7 | 3.5 | 0.00 | 0.00 | 0.00 | 63 | 1007.2 |
| 20260505151511 | 65 | 226 | 2.6 | 4.3 | 0.00 | 0.00 | 0.00 | 61 | 1007.0 |